| time (UTC) | temp C | wind direction | speed KPH | gust KPH | rain 1hr cm | rain 24hr cm | rain mn cm | humidity % | barometer mb |
| 20260510225924 | 13 | 109 | 4.8 | 4.8 | 0.00 | 0.00 | 0.00 | 31 | 1022.8 |
| 20260510225421 | 13 | 317 | 3.2 | 9.7 | 0.00 | 0.00 | 0.00 | 31 | 1023.0 |
| 20260510224916 | 13 | 286 | 6.4 | 11.3 | 0.00 | 0.00 | 0.00 | 32 | 1022.8 |
| 20260510224413 | 13 | 270 | 0.0 | 3.2 | 0.00 | 0.00 | 0.00 | 32 | 1022.9 |
| 20260510223909 | 14 | 247 | 11.3 | 12.9 | 0.00 | 0.00 | 0.00 | 30 | 1023.0 |
| 20260510223407 | 14 | 199 | 1.6 | 8.0 | 0.00 | 0.00 | 0.00 | 31 | 1022.8 |
| 20260510222904 | 14 | 216 | 8.0 | 14.5 | 0.00 | 0.00 | 0.00 | 30 | 1022.9 |
| 20260510222402 | 14 | 281 | 4.8 | 9.7 | 0.00 | 0.00 | 0.00 | 33 | 1022.8 |
| 20260510221856 | 14 | 231 | 11.3 | 14.5 | 0.00 | 0.00 | 0.00 | 33 | 1022.8 |
| 20260510221353 | 14 | 267 | 6.4 | 14.5 | 0.00 | 0.00 | 0.00 | 32 | 1022.8 |
| 20260510220849 | 14 | 280 | 3.2 | 9.7 | 0.00 | 0.00 | 0.00 | 32 | 1022.9 |
| 20260510220346 | 14 | 256 | 4.8 | 9.7 | 0.00 | 0.00 | 0.00 | 32 | 1022.7 |
| 20260510215842 | 14 | 203 | 4.8 | 8.0 | 0.00 | 0.00 | 0.00 | 31 | 1022.7 |
| 20260510215340 | 13 | 281 | 6.4 | 12.9 | 0.00 | 0.00 | 0.00 | 31 | 1022.7 |
| 20260510214837 | 14 | 322 | 8.0 | 27.4 | 0.00 | 0.00 | 0.00 | 31 | 1022.5 |
| 20260510214334 | 15 | 210 | 4.8 | 9.7 | 0.00 | 0.00 | 0.00 | 32 | 1022.5 |
| 20260510213831 | 15 | 217 | 9.7 | 12.9 | 0.00 | 0.00 | 0.00 | 30 | 1022.6 |
| 20260510213327 | 14 | 322 | 4.8 | 14.5 | 0.00 | 0.00 | 0.00 | 32 | 1022.4 |
| 20260510212824 | 15 | 234 | 8.0 | 11.3 | 0.00 | 0.00 | 0.00 | 31 | 1022.5 |
| 20260510212321 | 15 | 181 | 6.4 | 8.0 | 0.00 | 0.00 | 0.00 | 33 | 1022.5 |
| 20260510211818 | 14 | 297 | 4.8 | 11.3 | 0.00 | 0.00 | 0.00 | 34 | 1022.7 |
| 20260510211314 | 15 | 311 | 3.2 | 4.8 | 0.00 | 0.00 | 0.00 | 33 | 1022.5 |
| 20260510210810 | 15 | 217 | 6.4 | 11.3 | 0.00 | 0.00 | 0.00 | 34 | 1022.3 |
| 20260510210304 | 14 | 225 | 4.8 | 14.5 | 0.00 | 0.00 | 0.00 | 34 | 1022.3 |
| 20260510205804 | 15 | 259 | 9.7 | 12.9 | 0.00 | 0.00 | 0.00 | 34 | 1022.4 |
| 20260510205300 | 15 | 168 | 11.3 | 16.1 | 0.00 | 0.00 | 0.00 | 34 | 1022.5 |
| 20260510204756 | 15 | 248 | 3.2 | 12.9 | 0.00 | 0.00 | 0.00 | 35 | 1022.4 |
| 20260510204253 | 14 | 210 | 3.2 | 11.3 | 0.00 | 0.00 | 0.00 | 34 | 1022.3 |
| 20260510203749 | 14 | 328 | 4.8 | 12.9 | 0.00 | 0.00 | 0.00 | 35 | 1022.5 |
| 20260510203247 | 14 | 163 | 3.2 | 9.7 | 0.00 | 0.00 | 0.00 | 35 | 1022.5 |
| 20260510202746 | 13 | 212 | 8.0 | 11.3 | 0.00 | 0.00 | 0.00 | 35 | 1022.6 |
| 20260510202242 | 15 | 224 | 8.0 | 14.5 | 0.00 | 0.00 | 0.00 | 34 | 1022.5 |
| 20260510201740 | 14 | 213 | 1.6 | 17.7 | 0.00 | 0.00 | 0.00 | 34 | 1022.4 |
| 20260510201236 | 15 | 219 | 6.4 | 9.7 | 0.00 | 0.00 | 0.00 | 34 | 1022.7 |
| 20260510200733 | 14 | 188 | 14.5 | 16.1 | 0.00 | 0.00 | 0.00 | 33 | 1022.4 |
| 20260510200231 | 15 | 201 | 4.8 | 11.3 | 0.00 | 0.00 | 0.00 | 35 | 1022.4 |
| 20260510195727 | 14 | 224 | 8.0 | 11.3 | 0.00 | 0.00 | 0.00 | 36 | 1022.3 |
| 20260510195225 | 14 | 230 | 11.3 | 14.5 | 0.00 | 0.00 | 0.00 | 34 | 1022.5 |
| 20260510194723 | 15 | 213 | 14.5 | 20.9 | 0.00 | 0.00 | 0.00 | 34 | 1022.4 |
| 20260510194220 | 15 | 350 | 4.8 | 11.3 | 0.00 | 0.00 | 0.00 | 34 | 1022.6 |
| 20260510193715 | 14 | 234 | 8.0 | 11.3 | 0.00 | 0.00 | 0.00 | 35 | 1022.3 |
| 20260510193210 | 14 | 233 | 8.0 | 12.9 | 0.00 | 0.00 | 0.00 | 36 | 1022.6 |
| 20260510192707 | 13 | 131 | 6.4 | 14.5 | 0.00 | 0.00 | 0.00 | 39 | 1022.5 |
| 20260510192202 | 13 | 238 | 16.1 | 20.9 | 0.00 | 0.00 | 0.00 | 35 | 1022.7 |
| 20260510191658 | 14 | 126 | 8.0 | 14.5 | 0.00 | 0.00 | 0.00 | 35 | 1022.6 |
| 20260510191155 | 15 | 226 | 11.3 | 16.1 | 0.00 | 0.00 | 0.00 | 36 | 1022.4 |
| 20260510190652 | 13 | 162 | 9.7 | 16.1 | 0.00 | 0.00 | 0.00 | 38 | 1022.5 |
| 20260510190149 | 13 | 213 | 8.0 | 17.7 | 0.00 | 0.00 | 0.00 | 38 | 1022.4 |
| 20260510185646 | 13 | 233 | 6.4 | 9.7 | 0.00 | 0.00 | 0.00 | 39 | 1022.3 |
| 20260510185144 | 13 | 277 | 3.2 | 9.7 | 0.00 | 0.00 | 0.00 | 38 | 1022.4 |
| 20260510184641 | 13 | 318 | 8.0 | 12.9 | 0.00 | 0.00 | 0.00 | 38 | 1022.5 |
| 20260510184137 | 13 | 207 | 11.3 | 20.9 | 0.00 | 0.00 | 0.00 | 38 | 1022.3 |
| 20260510183632 | 14 | 161 | 1.6 | 12.9 | 0.00 | 0.00 | 0.00 | 37 | 1022.6 |
| 20260510183127 | 13 | 258 | 4.8 | 12.9 | 0.00 | 0.00 | 0.00 | 39 | 1022.6 |
| 20260510182625 | 13 | 174 | 4.8 | 12.9 | 0.00 | 0.00 | 0.00 | 39 | 1022.4 |
| 20260510182120 | 13 | 266 | 4.8 | 9.7 | 0.00 | 0.00 | 0.00 | 38 | 1022.5 |
| 20260510181617 | 13 | 220 | 8.0 | 14.5 | 0.00 | 0.00 | 0.00 | 39 | 1022.6 |
| 20260510181114 | 13 | 180 | 4.8 | 16.1 | 0.00 | 0.00 | 0.00 | 40 | 1022.8 |
| 20260510180610 | 13 | 261 | 4.8 | 9.7 | 0.00 | 0.00 | 0.00 | 40 | 1022.5 |
| 20260510180108 | 13 | 260 | 6.4 | 9.7 | 0.00 | 0.00 | 0.00 | 41 | 1022.6 |
| 20260510175603 | 12 | 207 | 6.4 | 16.1 | 0.00 | 0.00 | 0.00 | 41 | 1022.6 |
| 20260510175059 | 12 | 181 | 6.4 | 16.1 | 0.00 | 0.00 | 0.00 | 42 | 1022.8 |
| 20260510174557 | 13 | 219 | 11.3 | 16.1 | 0.00 | 0.00 | 0.00 | 41 | 1022.7 |
| 20260510174054 | 13 | 229 | 6.4 | 12.9 | 0.00 | 0.00 | 0.00 | 41 | 1022.6 |
| 20260510173549 | 12 | 326 | 3.2 | 11.3 | 0.00 | 0.00 | 0.00 | 43 | 1022.5 |
| 20260510173046 | 12 | 267 | 6.4 | 22.5 | 0.00 | 0.00 | 0.00 | 44 | 1022.6 |
| 20260510172542 | 12 | 227 | 9.7 | 20.9 | 0.00 | 0.00 | 0.00 | 44 | 1022.6 |
| 20260510172038 | 12 | 220 | 3.2 | 11.3 | 0.00 | 0.00 | 0.00 | 45 | 1022.8 |
| 20260510171535 | 13 | 253 | 6.4 | 17.7 | 0.00 | 0.00 | 0.00 | 43 | 1022.7 |
| 20260510171033 | 12 | 201 | 8.0 | 14.5 | 0.00 | 0.00 | 0.00 | 45 | 1022.8 |
| 20260510170528 | 13 | 221 | 9.7 | 12.9 | 0.00 | 0.00 | 0.00 | 44 | 1022.7 |
| 20260510170026 | 12 | 6 | 6.4 | 9.7 | 0.00 | 0.00 | 0.00 | 45 | 1022.7 |
| 20260510165521 | 11 | 143 | 11.3 | 22.5 | 0.00 | 0.00 | 0.00 | 47 | 1022.7 |
| 20260510165018 | 11 | 246 | 8.0 | 11.3 | 0.00 | 0.00 | 0.00 | 48 | 1022.7 |
| 20260510164515 | 11 | 221 | 4.8 | 12.9 | 0.00 | 0.00 | 0.00 | 51 | 1022.9 |
| 20260510164011 | 11 | 241 | 3.2 | 9.7 | 0.00 | 0.00 | 0.00 | 51 | 1022.8 |
| 20260510163506 | 11 | 288 | 6.4 | 9.7 | 0.00 | 0.00 | 0.00 | 51 | 1023.1 |
| 20260510163002 | 11 | 249 | 4.8 | 11.3 | 0.00 | 0.00 | 0.00 | 51 | 1022.8 |
| 20260510162458 | 11 | 203 | 6.4 | 9.7 | 0.00 | 0.00 | 0.00 | 51 | 1022.8 |
| 20260510161955 | 11 | 238 | 11.3 | 16.1 | 0.00 | 0.00 | 0.00 | 50 | 1022.8 |
| 20260510161451 | 11 | 264 | 3.2 | 11.3 | 0.00 | 0.00 | 0.00 | 50 | 1022.8 |
| 20260510160948 | 11 | 181 | 3.2 | 11.3 | 0.00 | 0.00 | 0.00 | 54 | 1022.6 |
| 20260510160444 | 11 | 243 | 3.2 | 12.9 | 0.00 | 0.00 | 0.00 | 53 | 1022.6 |
| 20260510155937 | 10 | 224 | 8.0 | 9.7 | 0.00 | 0.00 | 0.00 | 53 | 1022.7 |
| 20260510155434 | 10 | 272 | 3.2 | 12.9 | 0.00 | 0.00 | 0.00 | 53 | 1022.7 |
| 20260510154931 | 10 | 149 | 1.6 | 8.0 | 0.00 | 0.00 | 0.00 | 53 | 1022.8 |
| 20260510154426 | 10 | 174 | 1.6 | 9.7 | 0.00 | 0.00 | 0.00 | 54 | 1022.7 |
| 20260510153920 | 10 | 176 | 4.8 | 4.8 | 0.00 | 0.00 | 0.00 | 52 | 1022.7 |
| 20260510153417 | 10 | 195 | 6.4 | 11.3 | 0.00 | 0.00 | 0.00 | 54 | 1022.7 |
| 20260510152913 | 10 | 196 | 6.4 | 9.7 | 0.00 | 0.00 | 0.00 | 53 | 1022.6 |
| 20260510152411 | 10 | 186 | 3.2 | 14.5 | 0.00 | 0.00 | 0.00 | 54 | 1022.5 |
| 20260510151907 | 10 | 183 | 4.8 | 9.7 | 0.00 | 0.00 | 0.00 | 53 | 1022.5 |
| 20260510151405 | 10 | 214 | 8.0 | 12.9 | 0.00 | 0.00 | 0.00 | 52 | 1022.4 |
| 20260510150901 | 10 | 297 | 8.0 | 11.3 | 0.00 | 0.00 | 0.00 | 52 | 1022.3 |
| 20260510150356 | 10 | 234 | 6.4 | 8.0 | 0.00 | 0.00 | 0.00 | 53 | 1022.2 |
| 20260510145853 | 10 | 253 | 6.4 | 8.0 | 0.00 | 0.00 | 0.00 | 54 | 1022.5 |
| 20260510145349 | 10 | 303 | 3.2 | 9.7 | 0.00 | 0.00 | 0.00 | 54 | 1022.6 |
| 20260510144846 | 9 | 215 | 9.7 | 12.9 | 0.00 | 0.00 | 0.00 | 54 | 1022.5 |
| 20260510144343 | 10 | 202 | 3.2 | 4.8 | 0.00 | 0.00 | 0.00 | 54 | 1022.3 |
| 20260510143837 | 10 | 230 | 3.2 | 4.8 | 0.00 | 0.00 | 0.00 | 56 | 1022.4 |
| 20260510143333 | 9 | 275 | 1.6 | 1.6 | 0.00 | 0.00 | 0.00 | 57 | 1022.4 |
| 20260510142831 | 8 | 252 | 3.2 | 9.7 | 0.00 | 0.00 | 0.00 | 57 | 1022.4 |
| 20260510142327 | 9 | 248 | 4.8 | 4.8 | 0.00 | 0.00 | 0.00 | 57 | 1022.4 |
| 20260510141824 | 9 | 254 | 4.8 | 9.7 | 0.00 | 0.00 | 0.00 | 57 | 1022.5 |
| 20260510141322 | 9 | 276 | 8.0 | 12.9 | 0.00 | 0.00 | 0.00 | 57 | 1022.4 |
| 20260510140819 | 8 | 229 | 1.6 | 4.8 | 0.00 | 0.00 | 0.00 | 59 | 1022.2 |
| 20260510140314 | 8 | 199 | 6.4 | 9.7 | 0.00 | 0.00 | 0.00 | 58 | 1022.3 |
| 20260510135808 | 8 | 240 | 4.8 | 9.7 | 0.00 | 0.00 | 0.00 | 58 | 1021.9 |
| 20260510135306 | 9 | 164 | 1.6 | 4.8 | 0.00 | 0.00 | 0.00 | 57 | 1022.2 |
| 20260510134802 | 10 | 278 | 4.8 | 9.7 | 0.00 | 0.00 | 0.00 | 57 | 1022.2 |
| 20260510134258 | 9 | 34 | 0.0 | 3.2 | 0.00 | 0.00 | 0.00 | 56 | 1022.2 |
| 20260510133754 | 9 | 201 | 4.8 | 8.0 | 0.00 | 0.00 | 0.00 | 58 | 1022.0 |
| 20260510133250 | 9 | 291 | 1.6 | 9.7 | 0.00 | 0.00 | 0.00 | 58 | 1022.3 |
| 20260510132746 | 8 | 261 | 3.2 | 9.7 | 0.00 | 0.00 | 0.00 | 59 | 1022.0 |
| 20260510132244 | 8 | 260 | 6.4 | 12.9 | 0.00 | 0.00 | 0.00 | 59 | 1021.9 |
| 20260510131741 | 8 | 312 | 1.6 | 9.7 | 0.00 | 0.00 | 0.00 | 60 | 1022.0 |
| 20260510131239 | 8 | 303 | 3.2 | 4.8 | 0.00 | 0.00 | 0.00 | 61 | 1021.9 |
| 20260510130735 | 8 | 241 | 1.6 | 1.6 | 0.00 | 0.00 | 0.00 | 63 | 1022.0 |
| 20260510130232 | 7 | 276 | 1.6 | 3.2 | 0.00 | 0.00 | 0.00 | 63 | 1021.7 |
| 20260510125728 | 7 | 266 | 0.0 | 1.6 | 0.00 | 0.00 | 0.00 | 64 | 1021.8 |
| 20260510125224 | 7 | 220 | 0.0 | 1.6 | 0.00 | 0.00 | 0.00 | 65 | 1021.7 |
| 20260510124721 | 7 | 300 | 3.2 | 3.2 | 0.00 | 0.00 | 0.00 | 64 | 1021.7 |
| 20260510124219 | 7 | 231 | 0.0 | 1.6 | 0.00 | 0.00 | 0.00 | 65 | 1021.6 |
| 20260510123714 | 7 | 256 | 0.0 | 0.0 | 0.00 | 0.00 | 0.00 | 66 | 1021.5 |
| 20260510123210 | 6 | 219 | 1.6 | 1.6 | 0.00 | 0.00 | 0.00 | 66 | 1021.7 |
| 20260510122706 | 6 | 241 | 0.0 | 0.0 | 0.00 | 0.00 | 0.00 | 68 | 1021.6 |
| 20260510122203 | 6 | 258 | 0.0 | 0.0 | 0.00 | 0.00 | 0.00 | 68 | 1021.6 |
| 20260510121659 | 6 | 246 | 0.0 | 0.0 | 0.00 | 0.00 | 0.00 | 69 | 1021.4 |
| 20260510121156 | 6 | 267 | 0.0 | 0.0 | 0.00 | 0.00 | 0.00 | 70 | 1021.3 |
| 20260510120648 | 6 | 242 | 0.0 | 0.0 | 0.00 | 0.00 | 0.00 | 69 | 1021.4 |
| 20260510120144 | 6 | 250 | 1.6 | 1.6 | 0.00 | 0.00 | 0.00 | 69 | 1021.2 |
| 20260510115640 | 6 | 238 | 0.0 | 1.6 | 0.00 | 0.00 | 0.00 | 69 | 1021.3 |
| 20260510115139 | 6 | 194 | 0.0 | 1.6 | 0.00 | 0.00 | 0.00 | 69 | 1021.2 |
| 20260510114634 | 6 | 213 | 0.0 | 1.6 | 0.00 | 0.00 | 0.00 | 69 | 1020.9 |
| 20260510114130 | 6 | 246 | 0.0 | 1.6 | 0.00 | 0.00 | 0.00 | 69 | 1021.1 |
| 20260510113625 | 6 | 230 | 0.0 | 1.6 | 0.00 | 0.00 | 0.00 | 68 | 1021.0 |
| 20260510113123 | 6 | 214 | 1.6 | 1.6 | 0.00 | 0.00 | 0.00 | 68 | 1021.0 |
| 20260510112620 | 5 | 281 | 1.6 | 3.2 | 0.00 | 0.00 | 0.00 | 69 | 1020.8 |
| 20260510112116 | 5 | 230 | 0.0 | 1.6 | 0.00 | 0.00 | 0.00 | 69 | 1020.8 |
| 20260510111612 | 5 | 248 | 0.0 | 3.2 | 0.00 | 0.00 | 0.00 | 69 | 1020.8 |
| 20260510111108 | 5 | 243 | 0.0 | 0.0 | 0.00 | 0.00 | 0.00 | 70 | 1020.8 |
| 20260510110604 | 5 | 232 | 1.6 | 1.6 | 0.00 | 0.00 | 0.00 | 71 | 1020.7 |
| 20260510105557 | 5 | 246 | 0.0 | 0.0 | 0.00 | 0.00 | 0.00 | 70 | 1020.4 |
| 20260510105052 | 5 | 289 | 0.0 | 1.6 | 0.00 | 0.00 | 0.00 | 71 | 1020.2 |
| 20260510104549 | 5 | 330 | 0.0 | 0.0 | 0.00 | 0.00 | 0.00 | 70 | 1020.4 |
| 20260510104045 | 5 | 287 | 0.0 | 1.6 | 0.00 | 0.00 | 0.00 | 68 | 1020.2 |
| 20260510103542 | 5 | 265 | 0.0 | 0.0 | 0.00 | 0.00 | 0.00 | 69 | 1020.3 |
| 20260510103038 | 5 | 248 | 0.0 | 1.6 | 0.00 | 0.00 | 0.00 | 69 | 1020.1 |
| 20260510102534 | 5 | 259 | 0.0 | 3.2 | 0.00 | 0.00 | 0.00 | 68 | 1020.0 |
| 20260510102030 | 5 | 236 | 0.0 | 0.0 | 0.00 | 0.00 | 0.00 | 69 | 1020.1 |
| 20260510101528 | 5 | 235 | 0.0 | 0.0 | 0.00 | 0.00 | 0.00 | 69 | 1020.0 |
| 20260510101027 | 5 | 237 | 0.0 | 0.0 | 0.00 | 0.00 | 0.00 | 68 | 1019.8 |
| 20260510100522 | 5 | 238 | 0.0 | 3.2 | 0.00 | 0.00 | 0.00 | 67 | 1020.0 |
| 20260510100020 | 5 | 240 | 0.0 | 3.2 | 0.00 | 0.00 | 0.00 | 67 | 1019.7 |
| 20260510095515 | 5 | 223 | 1.6 | 1.6 | 0.00 | 0.00 | 0.00 | 68 | 1019.6 |
| 20260510095014 | 5 | 247 | 0.0 | 0.0 | 0.00 | 0.00 | 0.00 | 67 | 1019.5 |
| 20260510094509 | 6 | 246 | 1.6 | 1.6 | 0.00 | 0.00 | 0.00 | 65 | 1019.5 |
| 20260510094005 | 6 | 235 | 0.0 | 1.6 | 0.00 | 0.00 | 0.00 | 65 | 1019.7 |
| 20260510093501 | 5 | 256 | 0.0 | 1.6 | 0.00 | 0.00 | 0.00 | 66 | 1019.4 |
| 20260510092958 | 5 | 230 | 0.0 | 1.6 | 0.00 | 0.00 | 0.00 | 66 | 1019.5 |
| 20260510092455 | 5 | 247 | 0.0 | 0.0 | 0.00 | 0.00 | 0.00 | 66 | 1019.2 |
| 20260510091954 | 6 | 248 | 0.0 | 0.0 | 0.00 | 0.00 | 0.00 | 66 | 1019.2 |
| 20260510091451 | 6 | 231 | 1.6 | 1.6 | 0.00 | 0.00 | 0.00 | 63 | 1019.3 |
| 20260510090947 | 6 | 219 | 1.6 | 1.6 | 0.00 | 0.00 | 0.00 | 63 | 1019.2 |
| 20260510090445 | 5 | 225 | 0.0 | 1.6 | 0.00 | 0.00 | 0.00 | 64 | 1019.3 |
| 20260510085940 | 5 | 221 | 0.0 | 1.6 | 0.00 | 0.00 | 0.00 | 64 | 1019.1 |
| 20260510085435 | 4 | 226 | 0.0 | 1.6 | 0.00 | 0.00 | 0.00 | 67 | 1019.1 |
| 20260510084931 | 4 | 278 | 0.0 | 0.0 | 0.00 | 0.00 | 0.00 | 70 | 1018.8 |
| 20260510084428 | 4 | 278 | 0.0 | 0.0 | 0.00 | 0.00 | 0.00 | 69 | 1019.0 |
| 20260510083925 | 4 | 304 | 0.0 | 0.0 | 0.00 | 0.00 | 0.00 | 72 | 1018.8 |
| 20260510083421 | 5 | 305 | 0.0 | 0.0 | 0.00 | 0.00 | 0.00 | 72 | 1018.6 |
| 20260510082916 | 5 | 306 | 0.0 | 0.0 | 0.00 | 0.00 | 0.00 | 71 | 1018.4 |
| 20260510082415 | 5 | 287 | 0.0 | 0.0 | 0.00 | 0.00 | 0.00 | 69 | 1018.8 |
| 20260510081913 | 5 | 285 | 0.0 | 0.0 | 0.00 | 0.00 | 0.00 | 70 | 1018.5 |
| 20260510081409 | 4 | 248 | 0.0 | 0.0 | 0.00 | 0.00 | 0.00 | 69 | 1018.5 |
| 20260510080906 | 4 | 247 | 0.0 | 0.0 | 0.00 | 0.00 | 0.00 | 68 | 1018.3 |
| 20260510080400 | 4 | 248 | 0.0 | 0.0 | 0.00 | 0.00 | 0.00 | 67 | 1018.3 |
| 20260510075858 | 5 | 247 | 0.0 | 0.0 | 0.00 | 0.00 | 0.00 | 66 | 1018.4 |
| 20260510075356 | 5 | 247 | 0.0 | 0.0 | 0.00 | 0.00 | 0.00 | 65 | 1018.4 |
| 20260510074851 | 5 | 247 | 0.0 | 0.0 | 0.00 | 0.00 | 0.00 | 64 | 1018.4 |
| 20260510074349 | 5 | 247 | 0.0 | 0.0 | 0.00 | 0.00 | 0.00 | 64 | 1018.3 |
| 20260510073845 | 5 | 247 | 0.0 | 0.0 | 0.00 | 0.00 | 0.00 | 62 | 1018.2 |
| 20260510073341 | 5 | 268 | 0.0 | 0.0 | 0.00 | 0.00 | 0.00 | 63 | 1018.1 |
| 20260510072837 | 5 | 269 | 0.0 | 0.0 | 0.00 | 0.00 | 0.00 | 63 | 1018.2 |
| 20260510072334 | 5 | 269 | 0.0 | 0.0 | 0.00 | 0.00 | 0.00 | 61 | 1018.2 |
| 20260510071830 | 5 | 269 | 0.0 | 0.0 | 0.00 | 0.00 | 0.00 | 62 | 1018.2 |
| 20260510071326 | 6 | 234 | 0.0 | 0.0 | 0.00 | 0.00 | 0.00 | 61 | 1018.3 |
| 20260510070826 | 6 | 234 | 0.0 | 0.0 | 0.00 | 0.00 | 0.00 | 60 | 1018.3 |
| 20260510070321 | 5 | 234 | 0.0 | 0.0 | 0.00 | 0.00 | 0.00 | 60 | 1018.3 |
| 20260510065816 | 5 | 233 | 0.0 | 0.0 | 0.00 | 0.00 | 0.00 | 60 | 1018.4 |
| 20260510065313 | 5 | 234 | 0.0 | 0.0 | 0.00 | 0.00 | 0.00 | 60 | 1018.3 |
| 20260510064810 | 5 | 229 | 0.0 | 0.0 | 0.00 | 0.00 | 0.00 | 59 | 1018.1 |
| 20260510064308 | 6 | 229 | 0.0 | 0.0 | 0.00 | 0.00 | 0.00 | 58 | 1018.2 |
| 20260510063803 | 6 | 236 | 0.0 | 0.0 | 0.00 | 0.00 | 0.00 | 57 | 1018.2 |
| 20260510063300 | 6 | 196 | 0.0 | 1.6 | 0.00 | 0.00 | 0.00 | 56 | 1018.2 |
| 20260510062756 | 7 | 209 | 0.0 | 3.2 | 0.00 | 0.00 | 0.00 | 56 | 1018.0 |
| 20260510062252 | 7 | 237 | 0.0 | 0.0 | 0.00 | 0.00 | 0.00 | 56 | 1018.2 |
| 20260510061748 | 6 | 242 | 0.0 | 1.6 | 0.00 | 0.00 | 0.00 | 56 | 1018.2 |
| 20260510061245 | 6 | 246 | 0.0 | 0.0 | 0.00 | 0.00 | 0.00 | 56 | 1018.1 |
| 20260510060741 | 6 | 247 | 0.0 | 1.6 | 0.00 | 0.00 | 0.00 | 56 | 1018.1 |
| 20260510060238 | 6 | 268 | 0.0 | 0.0 | 0.00 | 0.00 | 0.00 | 57 | 1018.3 |
| 20260510055735 | 6 | 244 | 0.0 | 0.0 | 0.00 | 0.00 | 0.00 | 57 | 1018.1 |
| 20260510055233 | 7 | 247 | 0.0 | 0.0 | 0.00 | 0.00 | 0.00 | 57 | 1018.1 |
| 20260510054732 | 6 | 244 | 0.0 | 0.0 | 0.00 | 0.00 | 0.00 | 55 | 1018.1 |
| 20260510054229 | 7 | 254 | 0.0 | 0.0 | 0.00 | 0.00 | 0.00 | 54 | 1018.2 |
| 20260510053728 | 7 | 254 | 0.0 | 0.0 | 0.00 | 0.00 | 0.00 | 54 | 1017.9 |
| 20260510053225 | 7 | 229 | 0.0 | 0.0 | 0.00 | 0.00 | 0.00 | 54 | 1017.8 |
| 20260510052720 | 7 | 254 | 0.0 | 0.0 | 0.00 | 0.00 | 0.00 | 52 | 1017.9 |
| 20260510052217 | 8 | 214 | 0.0 | 1.6 | 0.00 | 0.00 | 0.00 | 51 | 1017.9 |
| 20260510051713 | 8 | 208 | 0.0 | 1.6 | 0.00 | 0.00 | 0.00 | 52 | 1017.9 |
| 20260510051209 | 8 | 230 | 0.0 | 0.0 | 0.00 | 0.00 | 0.00 | 51 | 1017.7 |
| 20260510050707 | 8 | 248 | 0.0 | 0.0 | 0.00 | 0.00 | 0.00 | 49 | 1017.7 |
| 20260510050204 | 8 | 235 | 0.0 | 1.6 | 0.00 | 0.00 | 0.00 | 49 | 1017.7 |
| 20260510045701 | 9 | 235 | 0.0 | 1.6 | 0.00 | 0.00 | 0.00 | 49 | 1017.8 |
| 20260510045157 | 9 | 243 | 0.0 | 1.6 | 0.00 | 0.00 | 0.00 | 48 | 1017.7 |
| 20260510044653 | 9 | 234 | 1.6 | 1.6 | 0.00 | 0.00 | 0.00 | 47 | 1017.7 |
| 20260510044151 | 9 | 162 | 3.2 | 3.2 | 0.00 | 0.00 | 0.00 | 47 | 1017.7 |
| 20260510043646 | 10 | 240 | 3.2 | 9.7 | 0.00 | 0.00 | 0.00 | 46 | 1017.5 |
| 20260510043143 | 10 | 171 | 0.0 | 1.6 | 0.00 | 0.00 | 0.00 | 46 | 1017.7 |
| 20260510042641 | 10 | 267 | 1.6 | 3.2 | 0.00 | 0.00 | 0.00 | 46 | 1017.8 |
| 20260510042137 | 10 | 257 | 1.6 | 3.2 | 0.00 | 0.00 | 0.00 | 45 | 1017.8 |
| 20260510041634 | 10 | 244 | 1.6 | 4.8 | 0.00 | 0.00 | 0.00 | 45 | 1017.6 |
| 20260510041131 | 10 | 263 | 1.6 | 8.0 | 0.00 | 0.00 | 0.00 | 45 | 1017.6 |
| 20260510040628 | 10 | 249 | 1.6 | 3.2 | 0.00 | 0.00 | 0.00 | 45 | 1017.5 |
| 20260510040125 | 10 | 267 | 4.8 | 11.3 | 0.00 | 0.00 | 0.00 | 45 | 1017.3 |
| 20260510035620 | 10 | 240 | 0.0 | 3.2 | 0.00 | 0.00 | 0.00 | 46 | 1017.3 |
| 20260510035115 | 10 | 213 | 3.2 | 8.0 | 0.00 | 0.00 | 0.00 | 44 | 1017.4 |
| 20260510034613 | 10 | 241 | 1.6 | 3.2 | 0.00 | 0.00 | 0.00 | 45 | 1017.1 |
| 20260510034110 | 10 | 211 | 1.6 | 3.2 | 0.00 | 0.00 | 0.00 | 44 | 1017.1 |
| 20260510033606 | 10 | 233 | 1.6 | 4.8 | 0.00 | 0.00 | 0.00 | 44 | 1017.1 |
| 20260510033104 | 10 | 252 | 1.6 | 3.2 | 0.00 | 0.00 | 0.00 | 45 | 1017.1 |
| 20260510032600 | 10 | 221 | 0.0 | 1.6 | 0.00 | 0.00 | 0.00 | 45 | 1017.0 |
| 20260510032055 | 10 | 306 | 3.2 | 4.8 | 0.00 | 0.00 | 0.00 | 44 | 1016.8 |
| 20260510031550 | 10 | 292 | 0.0 | 3.2 | 0.00 | 0.00 | 0.00 | 44 | 1016.7 |
| 20260510031047 | 10 | 222 | 1.6 | 1.6 | 0.00 | 0.00 | 0.00 | 43 | 1016.9 |
| 20260510030542 | 11 | 222 | 0.0 | 1.6 | 0.00 | 0.00 | 0.00 | 43 | 1016.6 |
| 20260510030040 | 11 | 230 | 3.2 | 3.2 | 0.00 | 0.00 | 0.00 | 42 | 1016.5 |
| 20260510025536 | 11 | 235 | 1.6 | 3.2 | 0.00 | 0.00 | 0.00 | 43 | 1016.6 |
| 20260510025034 | 11 | 244 | 1.6 | 3.2 | 0.00 | 0.00 | 0.00 | 42 | 1016.3 |
| 20260510024531 | 11 | 103 | 1.6 | 8.0 | 0.00 | 0.00 | 0.00 | 42 | 1016.1 |
| 20260510024027 | 11 | 258 | 1.6 | 3.2 | 0.00 | 0.00 | 0.00 | 41 | 1016.5 |
| 20260510023523 | 11 | 220 | 0.0 | 4.8 | 0.00 | 0.00 | 0.00 | 41 | 1016.1 |
| 20260510023021 | 11 | 272 | 1.6 | 3.2 | 0.00 | 0.00 | 0.00 | 40 | 1016.1 |
| 20260510022520 | 11 | 245 | 0.0 | 1.6 | 0.00 | 0.00 | 0.00 | 40 | 1015.8 |
| 20260510022014 | 11 | 247 | 4.8 | 9.7 | 0.00 | 0.00 | 0.00 | 39 | 1015.7 |
| 20260510021511 | 11 | 222 | 1.6 | 9.7 | 0.00 | 0.00 | 0.00 | 41 | 1015.6 |
| 20260510021008 | 11 | 259 | 1.6 | 3.2 | 0.00 | 0.00 | 0.00 | 40 | 1015.6 |
| 20260510020503 | 11 | 209 | 1.6 | 3.2 | 0.00 | 0.00 | 0.00 | 40 | 1015.5 |
| 20260510015958 | 12 | 225 | 3.2 | 4.8 | 0.00 | 0.00 | 0.00 | 39 | 1015.1 |
| 20260510015454 | 12 | 140 | 3.2 | 8.0 | 0.00 | 0.00 | 0.00 | 38 | 1015.0 |
| 20260510014950 | 12 | 222 | 1.6 | 8.0 | 0.00 | 0.00 | 0.00 | 38 | 1014.9 |
| 20260510014448 | 12 | 225 | 3.2 | 4.8 | 0.00 | 0.00 | 0.00 | 38 | 1014.8 |
| 20260510013944 | 12 | 222 | 1.6 | 3.2 | 0.00 | 0.00 | 0.00 | 39 | 1014.9 |
| 20260510013438 | 12 | 246 | 1.6 | 9.7 | 0.00 | 0.00 | 0.00 | 38 | 1014.7 |
| 20260510012935 | 12 | 232 | 6.4 | 8.0 | 0.00 | 0.00 | 0.00 | 38 | 1014.5 |
| 20260510012429 | 12 | 196 | 4.8 | 8.0 | 0.00 | 0.00 | 0.00 | 38 | 1014.5 |
| 20260510011925 | 12 | 264 | 1.6 | 3.2 | 0.00 | 0.00 | 0.00 | 38 | 1014.5 |
| 20260510011420 | 12 | 227 | 8.0 | 11.3 | 0.00 | 0.00 | 0.00 | 36 | 1014.5 |
| 20260510010916 | 12 | 258 | 3.2 | 9.7 | 0.00 | 0.00 | 0.00 | 36 | 1014.4 |
| 20260510010414 | 12 | 252 | 4.8 | 4.8 | 0.00 | 0.00 | 0.00 | 36 | 1014.2 |
| 20260510005910 | 13 | 199 | 4.8 | 8.0 | 0.00 | 0.00 | 0.00 | 36 | 1014.1 |
| 20260510005406 | 13 | 322 | 4.8 | 11.3 | 0.00 | 0.00 | 0.00 | 35 | 1014.0 |
| 20260510004904 | 13 | 245 | 6.4 | 9.7 | 0.00 | 0.00 | 0.00 | 35 | 1014.0 |
| 20260510004401 | 13 | 212 | 1.6 | 8.0 | 0.00 | 0.00 | 0.00 | 35 | 1014.0 |
| 20260510003859 | 14 | 277 | 4.8 | 9.7 | 0.00 | 0.00 | 0.00 | 34 | 1014.1 |
| 20260510003356 | 14 | 148 | 3.2 | 8.0 | 0.00 | 0.00 | 0.00 | 34 | 1014.0 |
| 20260510002854 | 13 | 242 | 4.8 | 8.0 | 0.00 | 0.00 | 0.00 | 34 | 1014.0 |
| 20260510002352 | 14 | 250 | 1.6 | 8.0 | 0.00 | 0.00 | 0.00 | 34 | 1013.6 |
| 20260510001848 | 14 | 201 | 14.5 | 22.5 | 0.00 | 0.00 | 0.00 | 33 | 1013.6 |
| 20260510001346 | 14 | 208 | 8.0 | 11.3 | 0.00 | 0.00 | 0.00 | 33 | 1013.8 |
| 20260510000843 | 14 | 130 | 3.2 | 8.0 | 0.00 | 0.00 | 0.00 | 34 | 1013.7 |
| 20260510000341 | 13 | 146 | 3.2 | 16.1 | 0.00 | 0.00 | 0.00 | 35 | 1013.7 |
| 20260509235836 | 14 | 244 | 4.8 | 12.9 | 0.00 | 0.00 | 0.00 | 34 | 1013.7 |
| 20260509235333 | 14 | 237 | 4.8 | 8.0 | 0.00 | 0.00 | 0.00 | 34 | 1013.7 |
| 20260509234829 | 14 | 269 | 6.4 | 11.3 | 0.00 | 0.00 | 0.00 | 34 | 1013.4 |
| 20260509234326 | 14 | 237 | 4.8 | 14.5 | 0.00 | 0.00 | 0.00 | 34 | 1013.4 |
| 20260509233824 | 15 | 207 | 6.4 | 14.5 | 0.00 | 0.00 | 0.00 | 35 | 1013.4 |
| 20260509233321 | 14 | 246 | 6.4 | 12.9 | 0.00 | 0.00 | 0.00 | 34 | 1013.2 |
| 20260509232817 | 14 | 223 | 6.4 | 11.3 | 0.00 | 0.00 | 0.00 | 35 | 1013.3 |
| 20260509232315 | 14 | 219 | 9.7 | 14.5 | 0.00 | 0.00 | 0.00 | 35 | 1013.1 |
| 20260509231811 | 14 | 210 | 9.7 | 14.5 | 0.00 | 0.00 | 0.00 | 35 | 1013.0 |
| 20260509231308 | 14 | 200 | 8.0 | 16.1 | 0.00 | 0.00 | 0.00 | 35 | 1013.3 |
| 20260509230806 | 14 | 254 | 4.8 | 9.7 | 0.00 | 0.00 | 0.00 | 35 | 1013.1 |
| 20260509230302 | 14 | 184 | 4.8 | 12.9 | 0.00 | 0.00 | 0.00 | 34 | 1013.0 |